Location: Kellogg
(38.0159°N, 90.0546°W)
Time: 01:48:21
(UTC+00:00)

SR - Pass Details

Date: 13 September 2024
Orbit: 577 x 855 km, 66.7° (Epoch: 10 October)

Event Time Altitude Azimuth Distance (km) Brightness Sun altitude
Rises 03:53:35 0° 342° (NNW) 2,937 ? -39.6°
Enters shadow 03:55:48 - 353° (N) 2,158 ? -39.9°
Reaches altitude 10° 03:56:04 10° 354° (N) 2,067 - -39.9°
Maximum altitude 04:00:08 29° 55° (NE) 1,265 - -40.5°
Drops below altitude 10° 04:04:29 10° 115° (ESE) 2,214 - -41.0°
Sets 04:07:13 0° 126° (SE) 3,185 - -41.3°
